NJE4E ESGG-EKVG

Flight info

Callsign NJE4E
Flight time 1h 46m
Altitude 38000
Route SABAK L617 REPKU DCT GUNPA/M082F380 DCT ROBUR
Aircraft CL60/M-SBDE1E2E3FGHIJ1J4J5J7M3RWXYZ/LB1V1D1

Departure

Time 2026-05-05 09:36
Airport Göteborg Landvetter Airport (ESGG)

Arrival

Time 2026-05-05 11:22
Airport Vágar Airport (EKVG)
Time Latitude Longitude Altitude Speed Heading
2026-05-05 09:03 57.67531 12.29914 516 ft 0 kts 24°
2026-05-05 09:16 57.67531 12.29913 518 ft 0 kts 24°
2026-05-05 09:32 57.67535 12.29914 517 ft 1 kts 349°
2026-05-05 09:32 57.67536 12.29898 517 ft 2 kts 229°
2026-05-05 09:33 57.67511 12.29883 517 ft 6 kts 193°
2026-05-05 09:33 57.67476 12.29868 517 ft 6 kts 187°
2026-05-05 09:33 57.67416 12.29831 517 ft 11 kts 206°
2026-05-05 09:33 57.67361 12.29750 517 ft 11 kts 249°
2026-05-05 09:34 57.67371 12.29620 517 ft 9 kts 296°
2026-05-05 09:34 57.67407 12.29482 516 ft 11 kts 296°
2026-05-05 09:34 57.67449 12.29318 516 ft 14 kts 296°
2026-05-05 09:34 57.67460 12.29266 516 ft 5 kts 274°
2026-05-05 09:35 57.67456 12.29164 516 ft 8 kts 265°
2026-05-05 09:35 57.67335 12.28937 515 ft 59 kts 205°
2026-05-05 09:35 57.66643 12.28316 569 ft 149 kts 206°
2026-05-05 09:36 57.65631 12.27410 1310 ft 174 kts 206°
2026-05-05 09:36 57.64546 12.26458 2363 ft 186 kts 206°
2026-05-05 09:36 57.63318 12.25368 3248 ft 214 kts 206°
2026-05-05 09:36 57.61881 12.24094 4016 ft 239 kts 206°
2026-05-05 09:37 57.60353 12.22733 4506 ft 249 kts 207°
2026-05-05 09:37 57.58796 12.21341 4708 ft 247 kts 209°
2026-05-05 09:37 57.57482 12.19441 4812 ft 240 kts 231°
2026-05-05 09:37 57.56646 12.16773 4912 ft 234 kts 253°
2026-05-05 09:38 57.56288 12.13821 4993 ft 236 kts 260°
2026-05-05 09:38 57.55982 12.10841 5004 ft 234 kts 260°
2026-05-05 09:38 57.55675 12.07897 5026 ft 233 kts 260°
2026-05-05 09:38 57.55363 12.04928 5264 ft 230 kts 261°
2026-05-05 09:39 57.55061 12.02044 5946 ft 229 kts 261°
2026-05-05 09:39 57.54750 11.99094 6695 ft 237 kts 261°
2026-05-05 09:39 57.54444 11.96010 7445 ft 242 kts 265°
2026-05-05 09:39 57.54602 11.92901 8213 ft 253 kts 288°
2026-05-05 09:40 57.55548 11.90078 8964 ft 270 kts 317°
2026-05-05 09:40 57.57166 11.88200 9719 ft 279 kts 330°
2026-05-05 09:40 57.58898 11.86536 10461 ft 287 kts 330°
2026-05-05 09:40 57.60723 11.84763 11201 ft 309 kts 330°
2026-05-05 09:41 57.62820 11.83418 11965 ft 333 kts 345°
2026-05-05 09:41 57.65151 11.82615 12707 ft 349 kts 345°
2026-05-05 09:41 57.67554 11.81797 13443 ft 358 kts 345°
2026-05-05 09:41 57.70048 11.80941 14320 ft 365 kts 344°
2026-05-05 09:42 57.72536 11.80086 15267 ft 370 kts 343°
2026-05-05 09:42 57.75067 11.79211 16150 ft 376 kts 343°
2026-05-05 09:42 57.77649 11.78317 17002 ft 381 kts 342°
2026-05-05 09:42 57.80284 11.77401 17805 ft 387 kts 342°
2026-05-05 09:43 57.82930 11.76480 18576 ft 392 kts 342°
2026-05-05 09:43 57.85618 11.75542 19324 ft 397 kts 342°
2026-05-05 09:43 57.88333 11.74592 20027 ft 402 kts 342°
2026-05-05 09:43 57.91093 11.73625 20710 ft 407 kts 342°
2026-05-05 09:44 57.93901 11.72639 21384 ft 412 kts 342°
2026-05-05 09:44 57.96715 11.71650 22036 ft 416 kts 342°
2026-05-05 09:44 57.99565 11.70645 22668 ft 420 kts 342°
2026-05-05 09:44 58.02436 11.69632 23269 ft 424 kts 342°
2026-05-05 09:45 58.05348 11.68602 23854 ft 428 kts 342°
2026-05-05 09:45 58.08310 11.67553 24427 ft 432 kts 342°
2026-05-05 09:45 58.11271 11.66501 24985 ft 436 kts 342°
2026-05-05 09:45 58.14259 11.65438 25535 ft 439 kts 341°
2026-05-05 09:46 58.17156 11.63877 26068 ft 429 kts 329°
2026-05-05 09:46 58.19676 11.61030 26578 ft 418 kts 315°
2026-05-05 09:46 58.21896 11.57496 27059 ft 419 kts 312°
2026-05-05 09:46 58.24115 11.53905 27544 ft 422 kts 313°
2026-05-05 09:47 58.26351 11.50292 28018 ft 425 kts 313°
2026-05-05 09:47 58.28621 11.46619 28474 ft 427 kts 313°
2026-05-05 09:47 58.30877 11.42962 28920 ft 429 kts 313°
2026-05-05 09:47 58.33153 11.39267 29343 ft 431 kts 313°
2026-05-05 09:48 58.35437 11.35555 29814 ft 431 kts 313°
2026-05-05 09:48 58.37704 11.31865 30379 ft 429 kts 311°
2026-05-05 09:48 58.39957 11.28196 30972 ft 426 kts 311°
2026-05-05 09:48 58.42218 11.24505 31555 ft 423 kts 311°
2026-05-05 09:49 58.44433 11.20881 32099 ft 421 kts 311°
2026-05-05 09:49 58.46651 11.17248 32622 ft 418 kts 311°
2026-05-05 09:49 58.48844 11.13648 33118 ft 417 kts 311°
2026-05-05 09:49 58.51015 11.10077 33572 ft 415 kts 311°
2026-05-05 09:50 58.53193 11.06488 33990 ft 414 kts 311°
2026-05-05 09:50 58.55374 11.02888 34394 ft 413 kts 311°
2026-05-05 09:50 58.57561 10.99274 34792 ft 413 kts 311°
2026-05-05 09:50 58.59715 10.95706 35140 ft 412 kts 311°
2026-05-05 09:51 58.61872 10.92127 35452 ft 411 kts 311°
2026-05-05 09:51 58.64014 10.88569 35749 ft 411 kts 311°
2026-05-05 09:51 58.66176 10.84969 36040 ft 410 kts 311°
2026-05-05 09:51 58.68321 10.81392 36254 ft 410 kts 311°
2026-05-05 09:52 58.70468 10.77804 36395 ft 411 kts 311°
2026-05-05 09:52 58.72629 10.74188 36516 ft 412 kts 311°
2026-05-05 09:52 58.74798 10.70551 36626 ft 413 kts 311°
2026-05-05 09:52 58.76963 10.66914 36731 ft 414 kts 312°
2026-05-05 09:53 58.79066 10.63145 36839 ft 411 kts 307°
2026-05-05 09:53 58.80859 10.58938 36932 ft 406 kts 299°
2026-05-05 09:53 58.82313 10.54290 37075 ft 400 kts 292°
2026-05-05 09:53 58.83570 10.49513 37162 ft 402 kts 292°
2026-05-05 09:54 58.86091 10.39848 37358 ft 405 kts 292°
2026-05-05 09:54 58.87345 10.35029 37465 ft 406 kts 292°
2026-05-05 09:54 58.88633 10.30071 37589 ft 407 kts 291°
2026-05-05 09:55 58.89895 10.25215 37715 ft 408 kts 291°
2026-05-05 09:55 58.91169 10.20302 37830 ft 409 kts 292°
2026-05-05 09:55 58.93727 10.10399 37913 ft 414 kts 292°
2026-05-05 09:56 58.96290 10.00396 37923 ft 421 kts 292°
2026-05-05 09:56 58.98897 9.90180 37923 ft 427 kts 292°
2026-05-05 09:57 59.01537 9.79791 37925 ft 432 kts 292°
2026-05-05 09:57 59.04196 9.69294 37925 ft 436 kts 292°
2026-05-05 09:58 59.06871 9.58684 37918 ft 439 kts 292°
2026-05-05 09:58 59.09558 9.47961 37916 ft 439 kts 292°
2026-05-05 09:59 59.12222 9.37285 37921 ft 439 kts 292°
2026-05-05 09:59 59.14894 9.26541 37924 ft 439 kts 291°
2026-05-05 10:00 59.17540 9.15843 37924 ft 439 kts 291°
2026-05-05 10:00 59.20184 9.05085 37922 ft 438 kts 292°
2026-05-05 10:01 59.22800 8.94388 37902 ft 438 kts 291°
2026-05-05 10:01 59.25409 8.83673 37908 ft 437 kts 292°
2026-05-05 10:02 59.28005 8.72966 37915 ft 436 kts 292°
2026-05-05 10:02 59.30596 8.62237 37918 ft 436 kts 292°
2026-05-05 10:03 59.33178 8.51489 37924 ft 436 kts 292°
2026-05-05 10:03 59.35751 8.40740 37850 ft 437 kts 292°
2026-05-05 10:04 59.38311 8.29966 37709 ft 436 kts 291°
2026-05-05 10:04 59.40860 8.19190 37686 ft 432 kts 291°
2026-05-05 10:05 59.43369 8.08519 37677 ft 432 kts 291°
2026-05-05 10:05 59.45873 7.97828 37621 ft 432 kts 291°
2026-05-05 10:06 59.48373 7.87117 37652 ft 430 kts 291°
2026-05-05 10:06 59.50841 7.76466 37700 ft 429 kts 291°
2026-05-05 10:07 59.53327 7.65684 37382 ft 437 kts 291°
2026-05-05 10:07 59.54590 7.60185 37153 ft 435 kts 291°
2026-05-05 10:07 59.55827 7.54792 37069 ft 430 kts 291°
2026-05-05 10:08 59.58254 7.44158 37033 ft 425 kts 291°
2026-05-05 10:08 59.60674 7.33515 37016 ft 426 kts 290°
2026-05-05 10:09 59.63087 7.22845 36998 ft 426 kts 290°
2026-05-05 10:09 59.65497 7.12143 36952 ft 426 kts 290°
2026-05-05 10:10 59.67891 7.01451 36887 ft 426 kts 290°
2026-05-05 10:10 59.70270 6.90773 37036 ft 421 kts 290°
2026-05-05 10:11 59.71448 6.85473 37192 ft 419 kts 290°
2026-05-05 10:11 59.72590 6.80313 37635 ft 410 kts 290°
2026-05-05 10:11 59.73735 6.75128 37975 ft 404 kts 290°
2026-05-05 10:11 59.74853 6.70054 37994 ft 408 kts 290°
2026-05-05 10:12 59.77140 6.59601 37813 ft 419 kts 290°
2026-05-05 10:12 59.79472 6.48912 37667 ft 429 kts 290°
2026-05-05 10:13 59.80670 6.43409 37484 ft 436 kts 290°
2026-05-05 10:13 59.81881 6.37833 37224 ft 441 kts 290°
2026-05-05 10:13 59.83080 6.32280 37066 ft 438 kts 290°
2026-05-05 10:13 59.84278 6.26723 37016 ft 434 kts 290°
2026-05-05 10:14 59.86632 6.15804 37328 ft 422 kts 289°
2026-05-05 10:14 59.87759 6.10549 37889 ft 409 kts 289°
2026-05-05 10:14 59.88860 6.05391 38067 ft 408 kts 289°
2026-05-05 10:15 59.91103 5.94830 38002 ft 418 kts 290°
2026-05-05 10:15 59.93378 5.84090 37996 ft 425 kts 290°
2026-05-05 10:16 59.95676 5.73144 37997 ft 431 kts 290°
2026-05-05 10:16 59.98001 5.62027 37984 ft 437 kts 290°
2026-05-05 10:17 60.00339 5.50754 37966 ft 440 kts 290°
2026-05-05 10:17 60.02673 5.39495 37971 ft 439 kts 290°
2026-05-05 10:18 60.04989 5.28217 37995 ft 438 kts 289°
2026-05-05 10:18 60.07306 5.16905 38005 ft 439 kts 289°
2026-05-05 10:19 60.09611 5.05593 38001 ft 439 kts 289°
2026-05-05 10:19 60.11912 4.94251 38001 ft 440 kts 289°
2026-05-05 10:20 60.14202 4.82866 38001 ft 440 kts 289°
2026-05-05 10:20 60.16495 4.71433 38001 ft 441 kts 289°
2026-05-05 10:21 60.18759 4.60062 37996 ft 441 kts 289°
2026-05-05 10:21 60.21011 4.48679 37995 ft 440 kts 290°
2026-05-05 10:22 60.23257 4.37261 37989 ft 440 kts 290°
2026-05-05 10:22 60.25465 4.25972 37986 ft 440 kts 289°
2026-05-05 10:23 60.27685 4.14564 37974 ft 440 kts 289°
2026-05-05 10:23 60.29900 4.03113 37966 ft 439 kts 289°
2026-05-05 10:24 60.32119 3.91619 37960 ft 438 kts 289°
2026-05-05 10:24 60.34300 3.80188 37951 ft 438 kts 289°
2026-05-05 10:25 60.36474 3.68741 37940 ft 438 kts 289°
2026-05-05 10:25 60.38631 3.57326 37932 ft 439 kts 289°
2026-05-05 10:26 60.40795 3.45828 37934 ft 439 kts 289°
2026-05-05 10:26 60.42959 3.34237 37931 ft 439 kts 288°
2026-05-05 10:27 60.45093 3.22739 37943 ft 439 kts 288°
2026-05-05 10:27 60.47242 3.11097 37952 ft 440 kts 288°
2026-05-05 10:28 60.49361 2.99555 37956 ft 440 kts 288°
2026-05-05 10:28 60.51488 2.87892 37963 ft 440 kts 288°
2026-05-05 10:29 60.53593 2.76255 37967 ft 440 kts 288°
2026-05-05 10:29 60.55684 2.64645 37972 ft 440 kts 288°
2026-05-05 10:30 60.57783 2.52951 37969 ft 440 kts 288°
2026-05-05 10:30 60.59864 2.41253 37966 ft 440 kts 288°
2026-05-05 10:31 60.61934 2.29566 37961 ft 440 kts 288°
2026-05-05 10:31 60.63985 2.17868 37964 ft 440 kts 288°
2026-05-05 10:32 60.66019 2.06204 37961 ft 439 kts 288°
2026-05-05 10:32 60.68051 1.94497 37956 ft 439 kts 288°
2026-05-05 10:33 60.70079 1.82749 37953 ft 439 kts 288°
2026-05-05 10:33 60.72090 1.71007 37952 ft 439 kts 288°
2026-05-05 10:34 60.74095 1.59220 37953 ft 440 kts 288°
2026-05-05 10:34 60.76090 1.47432 37954 ft 440 kts 288°
2026-05-05 10:35 60.78076 1.35618 37960 ft 440 kts 288°
2026-05-05 10:35 60.80051 1.23782 37969 ft 440 kts 287°
2026-05-05 10:36 60.82005 1.12012 37972 ft 441 kts 287°
2026-05-05 10:36 60.83968 1.00112 37978 ft 441 kts 287°
2026-05-05 10:37 60.85926 0.88155 37975 ft 442 kts 288°
2026-05-05 10:37 60.87861 0.76265 37977 ft 442 kts 288°
2026-05-05 10:38 60.89789 0.64337 37978 ft 442 kts 288°
2026-05-05 10:38 60.91705 0.52428 37979 ft 442 kts 288°
2026-05-05 10:39 60.93617 0.40428 37984 ft 441 kts 288°
2026-05-05 10:39 60.95518 0.28429 37990 ft 441 kts 287°
2026-05-05 10:40 60.97392 0.16515 38002 ft 442 kts 287°
2026-05-05 10:40 60.99278 0.04456 38007 ft 442 kts 287°
2026-05-05 10:41 61.01189 -0.07524 37985 ft 443 kts 288°
2026-05-05 10:41 61.03141 -0.19559 38018 ft 443 kts 288°
2026-05-05 10:42 61.06029 -0.37523 38018 ft 441 kts 288°
2026-05-05 10:43 61.07943 -0.49532 38017 ft 438 kts 288°
2026-05-05 10:43 61.09822 -0.61403 38014 ft 437 kts 288°
2026-05-05 10:44 61.11700 -0.73343 38019 ft 437 kts 288°
2026-05-05 10:44 61.13570 -0.85314 38022 ft 438 kts 288°
2026-05-05 10:45 61.15431 -0.97309 38022 ft 438 kts 288°
2026-05-05 10:45 61.17276 -1.09285 38028 ft 438 kts 288°
2026-05-05 10:46 61.19112 -1.21283 38031 ft 438 kts 288°
2026-05-05 10:46 61.20935 -1.33280 38033 ft 438 kts 288°
2026-05-05 10:47 61.22746 -1.45282 38041 ft 439 kts 288°
2026-05-05 10:47 61.24558 -1.57377 38047 ft 439 kts 288°
2026-05-05 10:48 61.26363 -1.69505 38063 ft 439 kts 287°
2026-05-05 10:48 61.28150 -1.81606 38078 ft 440 kts 287°
2026-05-05 10:49 61.29938 -1.93799 38057 ft 441 kts 287°
2026-05-05 10:49 61.31718 -2.06025 38044 ft 442 kts 287°
2026-05-05 10:50 61.33478 -2.18200 38049 ft 442 kts 287°
2026-05-05 10:50 61.35232 -2.30426 38054 ft 442 kts 287°
2026-05-05 10:51 61.36979 -2.42693 38055 ft 442 kts 287°
2026-05-05 10:51 61.38718 -2.54992 38059 ft 442 kts 287°
2026-05-05 10:52 61.40442 -2.67281 38066 ft 442 kts 286°
2026-05-05 10:52 61.42153 -2.79568 38061 ft 442 kts 286°
2026-05-05 10:53 61.43854 -2.91879 37952 ft 443 kts 286°
2026-05-05 10:53 61.44707 -2.98082 37294 ft 446 kts 286°
2026-05-05 10:53 61.45556 -3.04290 36553 ft 447 kts 286°
2026-05-05 10:53 61.46405 -3.10518 35812 ft 448 kts 286°
2026-05-05 10:54 61.47252 -3.16753 35082 ft 446 kts 286°
2026-05-05 10:54 61.48090 -3.22953 34378 ft 443 kts 286°
2026-05-05 10:54 61.48918 -3.29095 33688 ft 439 kts 286°
2026-05-05 10:54 61.49731 -3.35153 33015 ft 435 kts 286°
2026-05-05 10:55 61.50541 -3.41208 32310 ft 432 kts 286°
2026-05-05 10:55 61.51350 -3.47290 31566 ft 428 kts 286°
2026-05-05 10:55 61.52141 -3.53251 30800 ft 422 kts 286°
2026-05-05 10:55 61.52905 -3.59032 30078 ft 415 kts 286°
2026-05-05 10:56 61.53665 -3.64806 29374 ft 409 kts 286°
2026-05-05 10:56 61.54407 -3.70458 28882 ft 396 kts 286°
2026-05-05 10:56 61.55119 -3.75908 28481 ft 382 kts 286°
2026-05-05 10:56 61.55813 -3.81230 28148 ft 369 kts 286°
2026-05-05 10:57 61.56482 -3.86371 27736 ft 371 kts 286°
2026-05-05 10:57 61.57156 -3.91586 27412 ft 371 kts 286°
2026-05-05 10:57 61.57829 -3.96796 27057 ft 372 kts 286°
2026-05-05 10:57 61.58506 -4.02064 26702 ft 371 kts 286°
2026-05-05 10:58 61.59173 -4.07268 26352 ft 370 kts 286°
2026-05-05 10:58 61.59835 -4.12453 26004 ft 369 kts 286°
2026-05-05 10:58 61.60495 -4.17635 25653 ft 368 kts 286°
2026-05-05 10:58 61.61152 -4.22813 25294 ft 367 kts 286°
2026-05-05 10:59 61.61801 -4.27949 24940 ft 366 kts 286°
2026-05-05 10:59 61.62456 -4.33145 24582 ft 364 kts 286°
2026-05-05 10:59 61.63099 -4.38268 24223 ft 363 kts 286°
2026-05-05 10:59 61.63732 -4.43328 23885 ft 361 kts 286°
2026-05-05 11:00 61.64370 -4.48435 23536 ft 360 kts 286°
2026-05-05 11:00 61.65004 -4.53542 23186 ft 359 kts 286°
2026-05-05 11:00 61.65629 -4.58586 22841 ft 357 kts 286°
2026-05-05 11:00 61.66249 -4.63610 22497 ft 356 kts 286°
2026-05-05 11:01 61.66863 -4.68599 22155 ft 355 kts 285°
2026-05-05 11:01 61.67480 -4.73626 21811 ft 354 kts 285°
2026-05-05 11:01 61.68094 -4.78653 21467 ft 353 kts 285°
2026-05-05 11:01 61.68696 -4.83588 21126 ft 352 kts 285°
2026-05-05 11:02 61.69304 -4.88601 20784 ft 350 kts 285°
2026-05-05 11:02 61.69896 -4.93490 20453 ft 348 kts 285°
2026-05-05 11:02 61.70492 -4.98431 20110 ft 347 kts 285°
2026-05-05 11:02 61.71080 -5.03325 19776 ft 345 kts 285°
2026-05-05 11:03 61.71667 -5.08229 19440 ft 344 kts 285°
2026-05-05 11:03 61.72246 -5.13078 19108 ft 343 kts 285°
2026-05-05 11:03 61.72822 -5.17916 18779 ft 342 kts 285°
2026-05-05 11:03 61.73399 -5.22783 18445 ft 341 kts 285°
2026-05-05 11:04 61.73974 -5.27644 18113 ft 340 kts 285°
2026-05-05 11:04 61.74538 -5.32437 17785 ft 339 kts 285°
2026-05-05 11:04 61.75112 -5.37321 17449 ft 339 kts 285°
2026-05-05 11:04 61.75670 -5.42089 17126 ft 338 kts 285°
2026-05-05 11:05 61.76236 -5.46939 16796 ft 337 kts 285°
2026-05-05 11:05 61.76791 -5.51718 16470 ft 337 kts 285°
2026-05-05 11:05 61.77348 -5.56522 16142 ft 336 kts 285°
2026-05-05 11:05 61.77895 -5.61266 15819 ft 334 kts 286°
2026-05-05 11:06 61.78438 -5.65986 15508 ft 329 kts 285°
2026-05-05 11:06 61.78971 -5.70641 15170 ft 324 kts 285°
2026-05-05 11:06 61.79496 -5.75232 14879 ft 319 kts 285°
2026-05-05 11:06 61.80008 -5.79720 14551 ft 314 kts 285°
2026-05-05 11:07 61.80515 -5.84184 14275 ft 309 kts 285°
2026-05-05 11:07 61.81011 -5.88556 13960 ft 304 kts 285°
2026-05-05 11:07 61.81493 -5.92821 13672 ft 299 kts 285°
2026-05-05 11:07 61.81967 -5.97039 13380 ft 294 kts 285°
2026-05-05 11:08 61.82437 -6.01231 13098 ft 289 kts 285°
2026-05-05 11:08 61.82893 -6.05297 12830 ft 284 kts 286°
2026-05-05 11:08 61.83344 -6.09330 12551 ft 279 kts 286°
2026-05-05 11:08 61.83785 -6.13305 12292 ft 274 kts 286°
2026-05-05 11:09 61.84216 -6.17180 12016 ft 270 kts 286°
2026-05-05 11:09 61.84642 -6.21007 11754 ft 265 kts 286°
2026-05-05 11:09 61.85052 -6.24742 11508 ft 260 kts 286°
2026-05-05 11:09 61.85453 -6.28390 11253 ft 255 kts 286°
2026-05-05 11:10 61.85853 -6.32047 10999 ft 250 kts 287°
2026-05-05 11:10 61.86241 -6.35593 10765 ft 246 kts 287°
2026-05-05 11:10 61.86620 -6.39066 10534 ft 241 kts 287°
2026-05-05 11:10 61.86996 -6.42501 10310 ft 237 kts 287°
2026-05-05 11:11 61.87362 -6.45872 10085 ft 232 kts 287°
2026-05-05 11:11 61.87719 -6.49164 9837 ft 229 kts 286°
2026-05-05 11:11 61.88073 -6.52400 9642 ft 224 kts 287°
2026-05-05 11:11 61.88418 -6.55585 9408 ft 221 kts 287°
2026-05-05 11:12 61.88763 -6.58709 9186 ft 216 kts 287°
2026-05-05 11:12 61.89124 -6.61769 8955 ft 213 kts 288°
2026-05-05 11:12 61.89483 -6.64814 8636 ft 212 kts 288°
2026-05-05 11:12 61.89846 -6.67880 8281 ft 212 kts 287°
2026-05-05 11:13 61.90197 -6.70866 7898 ft 215 kts 287°
2026-05-05 11:13 61.90561 -6.73975 7603 ft 211 kts 287°
2026-05-05 11:13 61.90911 -6.76961 7310 ft 207 kts 287°
2026-05-05 11:13 61.91249 -6.79851 7071 ft 193 kts 287°
2026-05-05 11:14 61.91555 -6.82491 6892 ft 176 kts 287°
2026-05-05 11:14 61.91837 -6.84933 6588 ft 165 kts 288°
2026-05-05 11:14 61.92097 -6.87183 6405 ft 153 kts 288°
2026-05-05 11:14 61.92356 -6.89383 6175 ft 154 kts 288°
2026-05-05 11:15 61.92613 -6.91576 5971 ft 152 kts 288°
2026-05-05 11:15 61.92866 -6.93765 5785 ft 153 kts 288°
2026-05-05 11:15 61.93124 -6.95986 5564 ft 153 kts 288°
2026-05-05 11:15 61.93375 -6.98164 5380 ft 153 kts 288°
2026-05-05 11:16 61.93625 -7.00333 5175 ft 151 kts 288°
2026-05-05 11:16 61.93879 -7.02513 4947 ft 152 kts 288°
2026-05-05 11:16 61.94130 -7.04700 4771 ft 151 kts 288°
2026-05-05 11:16 61.94382 -7.06878 4566 ft 151 kts 288°
2026-05-05 11:17 61.94629 -7.09041 4365 ft 151 kts 288°
2026-05-05 11:17 61.94879 -7.11225 4159 ft 152 kts 288°
2026-05-05 11:17 61.95129 -7.13415 3983 ft 152 kts 288°
2026-05-05 11:17 61.95374 -7.15582 3747 ft 150 kts 288°
2026-05-05 11:18 61.95619 -7.17741 3493 ft 151 kts 288°
2026-05-05 11:18 61.95867 -7.19907 3217 ft 150 kts 288°
2026-05-05 11:18 61.96214 -7.21875 3013 ft 131 kts 302°
2026-05-05 11:18 61.96732 -7.23369 2830 ft 124 kts 315°
2026-05-05 11:19 61.97385 -7.24503 2618 ft 119 kts 328°
2026-05-05 11:19 61.98132 -7.25236 2412 ft 118 kts 341°
2026-05-05 11:19 61.98936 -7.25542 2213 ft 119 kts 354°
2026-05-05 11:19 61.99760 -7.25474 2026 ft 120 kts
2026-05-05 11:20 62.00561 -7.24953 1828 ft 122 kts 20°
2026-05-05 11:20 62.01314 -7.24115 1593 ft 121 kts 23°
2026-05-05 11:20 62.02062 -7.23254 1434 ft 122 kts 22°
2026-05-05 11:20 62.02808 -7.22421 1239 ft 121 kts 21°
2026-05-05 11:21 62.03596 -7.21951 1042 ft 116 kts
2026-05-05 11:21 62.04392 -7.22187 885 ft 116 kts 338°
2026-05-05 11:21 62.05037 -7.23186 712 ft 116 kts 316°
2026-05-05 11:21 62.05551 -7.24563 510 ft 118 kts 308°
2026-05-05 11:22 62.05954 -7.26096 296 ft 118 kts 303°
2026-05-05 11:22 62.06291 -7.27442 296 ft 86 kts 298°
2026-05-05 11:22 62.06440 -7.28052 300 ft 3 kts 297°
2026-05-05 11:22 62.06457 -7.28118 299 ft 6 kts 298°
2026-05-05 11:23 62.06490 -7.28155 297 ft 8 kts 25°
2026-05-05 11:23 62.06548 -7.28103 295 ft 10 kts 18°
2026-05-05 11:23 62.06629 -7.28093 295 ft 13 kts 354°
2026-05-05 11:23 62.06697 -7.28075 295 ft 4 kts 27°
2026-05-05 11:24 62.06710 -7.28038 295 ft 0 kts 71°